This demonstration page uses our WeatherBlox Daily Observations layout. Learn more.

Left ArrowRight Arrow

34.16533, -84.80231

Hourly Observations for March 20, 2020

Temp ( °F °C ) Dew Point ( °F °C ) Humidity (%) Winds ( mph kmh ) Pressure ( in mb ) Visibility ( mi km ) Precip ( " mm )
12:53 am 00:53 Clear 62 16.7 59 15 90 90 SSE 5 7 30.18 1022 10 16 0.00 0.00
1:53 am 01:53 Partly Cloudy 63 17.2 58 14.4 84 84 SSE 6 9 30.18 1022 10 16 0.00 0.00
2:53 am 02:53 Clear 63 17.2 59 15 87 87 SSE 5 7 30.19 1023 10 16 0.00 0.00
3:53 am 03:53 Clear 62 16.7 58 14.4 86 86 S 3 6 30.18 1022 10 16 0.00 0.00
4:53 am 04:53 Clear 59 15 57 13.9 93 93 Calm 30.19 1022 8 13 0.00 0.00
5:53 am 05:53 Clear with Mist and Fog 58 14.4 56 13.3 93 93 SSE 3 6 30.19 1023 6 10 0.00 0.00
6:53 am 06:53 Clear 59 15 57 13.9 93 93 Calm 30.20 1023 10 16 0.00 0.00
7:53 am 07:53 Mostly Sunny 58 14.4 56 13.3 93 93 Calm 30.22 1023 8 13 0.00 0.00
8:06 am 08:06 Mostly Cloudy with Mist and Fog 58 14.4 56 13.3 93 93 Calm 30.25 1024 6 10 0.00 0.00
8:53 am 08:53 Cloudy 61 16.1 59 15 93 93 Calm 30.24 1024 7 11 0.00 0.00
9:53 am 09:53 Cloudy 67 19.4 61 16.1 81 81 Calm 30.24 1024 10 16 0.00 0.00
10:53 am 10:53 Cloudy 71 21.7 60 15.6 68 68 SSW 5 7 30.24 1024 10 16 0.00 0.00
11:53 am 11:53 Cloudy 74 23.3 62 16.7 67 67 VRB 3 6 30.24 1024 10 16 0.00 0.00
12:53 pm 12:53 Cloudy 75 23.9 62 16.7 64 64 Calm 30.22 1023 10 16 0.00 0.00
1:10 pm 13:10 Cloudy 76 24.4 62 16.7 62 62 Calm 30.22 1023 10 16 0.00 0.00
1:53 pm 13:53 Mostly Cloudy 79 26.1 63 17.2 58 58 Calm 30.18 1022 10 16 0.00 0.00
2:53 pm 14:53 Mostly Cloudy 79 26.1 62 16.7 56 56 VRB 5 7 30.14 1021 10 16 0.00 0.00
3:53 pm 15:53 Partly Cloudy 81 27.2 60 15.6 49 49 VRB 7 11 30.13 1020 10 16 0.00 0.00
4:53 pm 16:53 Mostly Cloudy 81 27.2 61 16.1 51 51 undefined N/A 30.13 1020 10 16 0.00 0.00
5:53 pm 17:53 Mostly Cloudy 80 26.7 61 16.1 52 52 Calm 30.11 1020 10 16 0.00 0.00
6:53 pm 18:53 Partly Cloudy 79 26.1 62 16.7 56 56 VRB 3 6 30.13 1020 10 16 0.00 0.00
7:53 pm 19:53 Cloudy 69 20.6 56 13.3 63 63 NNW 10 17 30.18 1022 10 16 0.00 0.00
8:53 pm 20:53 Cloudy 66 18.9 58 14.4 75 75 undefined N/A 30.23 1024 10 16 0.00 0.00
9:53 pm 21:53 Mostly Cloudy 64 17.8 59 15 84 84 VRB 5 7 30.24 1024 10 16 0.00 0.00
10:53 pm 22:53 Cloudy 64 17.8 59 15 84 84 Calm 30.25 1024 10 16 0.00 0.00
11:53 pm 23:53 Partly Cloudy 62 16.7 60 15.6 93 93 Calm 30.23 1024 10 16 0.06 1.52

Powered by AerisWeather